Regional Weather Roundup
Issued by NWS

Home | Current Version | Previous Version | Text Only | Print | Product List | Glossary Off
Versions: 1 2 3 4 5 6 7 8 9 10 11 12 13 14 15 16 17 18 19 20 21 22 23 24 25 26 27 28 29 30 31 32 33 34 35 36 37 38 39 40 41 42 43 44 45 46 47 48 49 50

912
ASUS45 KBOU 241107
RWRCO

WEATHER ROUNDUP FOR COLORADO
NATIONAL WEATHER SERVICE DENVER/BOULDER CO
500 AM MDT WED MAY 24 2017

NOTE: "FAIR" INDICATES FEW OR NO CLOUDS BELOW 12000 FEET WITH NO
SIGNIFICANT WEATHER AND/OR OBSTRUCTIONS TO VISIBILITY.

COZ001>005-013-030-031-241200-
...NORTHWEST COLORADO...

CITY           SKY/WX    TMP DP  RH WIND       PRES   REMARKS
CRAIG          FAIR      34  29  82 CALM      30.03F
HAYDEN         FAIR      37  28  70 E10       30.05F
MEEKER         FAIR      36  31  82 NE6       30.06F
RABBIT EARS PA FAIR      32  30  93 W16       30.17F WCI  21
STEAMBOAT SPGS FAIR      33  31  91 CALM      30.07F
WALDEN           N/A     34  28  80 SE5       30.08F WCI  30
$$

COZ006>008-011-241200-
...WEST CENTRAL VALLEYS...

CITY           SKY/WX    TMP DP  RH WIND       PRES   REMARKS
GRAND JUNCTION FAIR      50  32  50 E5        29.99F
MONTROSE       FAIR      44  33  65 S7        30.06F
EAGLE          FAIR      35  29  78 CALM      30.12F
RIFLE          FAIR      41  30  65 SW6       30.06F
DELTA          FAIR      48  31  52 E7        30.03F
NUCLA          FAIR      45  32  61 E6        30.10F
$$

COZ017>023-064>068-241200-
...SOUTHWEST COLORADO...

CITY           SKY/WX    TMP DP  RH WIND       PRES   REMARKS
DURANGO        FAIR      35  24  64 NE9       30.08F WCI  28
CORTEZ         FAIR      38  33  82 NE6       30.07F
PAGOSA SPRINGS FAIR      39  23  53 CALM      30.13F
TELLURIDE      FAIR      40  29  65 CALM      30.22S
WOLF CREEK PAS FAIR      34  27  75 W8        30.35F WCI  27
$$

COZ009-010-012-014-032>034-037-058>063-241200-
...CENTRAL COLORADO...

CITY           SKY/WX    TMP DP  RH WIND       PRES   REMARKS
ASPEN          FAIR      34  27  75 S8        30.11F WCI  27
BUENA VISTA    FAIR      33  27  77 CALM      30.08F
COPPER MTN     FAIR      34  27  75 MISG      30.26F
BERTHOUD PASS  FAIR      28  18  64 NW37G45   30.20F WCI  11
COTTONWOOD PAS FAIR      46  27  46 NW12G26   30.14F
GUNNISON       NOT AVBL
KREMMLING      FAIR      34  30  86 CALM      30.12F
LEADVILLE      FAIR      33  23  66 E5        30.16F WCI  29
MONARCH PASS   FAIR      32  21  64 W29       30.36S WCI  18
SALIDA         FAIR      38  24  57 W3        30.15F
SUNLIGHT       FAIR      34  27  75 SW8       30.26F WCI  27
WILKERSON PASS FAIR      34  27  75 NW17G35   30.21F WCI  23
$$

COZ069>075-241200-
...SAN LUIS VALLEY/SANGRE DE CRISTO MOUNTAINS...

CITY           SKY/WX    TMP DP  RH WIND       PRES   REMARKS
ALAMOSA        FAIR      34  25  69 SW8       30.10F WCI  27
DEL NORTE      FAIR      36  18  47 SW8       30.13S
LA VETA PASS   FAIR      34  18  51 SW22      30.26F WCI  22
SAGUACHE       FAIR      43  21  42 N3        30.10F
$$

COZ035-036-038>040-241200-
...NORTHERN COLORADO FRONT RANGE...

CITY           SKY/WX    TMP DP  RH WIND       PRES   REMARKS
DENVER INTL AP FAIR      37  33  85 S12       29.89F
DMNS CITY PARK   N/A     41  34  74 MISG      29.89F
AURORA         PTCLDY    39  33  77 S9        29.90F
FRONT RANGE AP FAIR      41  36  81 S9        29.91F
ERIE MUNI ARPT FAIR      38  37  93 CALM      29.89F
BOULDER MUN AP FAIR      41  37  87 CALM      29.89F
CENTENNIAL     FAIR      42  34  73 S9        29.90F
BROOMFIELD     FAIR      41  34  75 S5        29.90F
FORT COLLINS   FAIR      42  36  79 NE5       29.89F
LONGMONT       FAIR      41  35  77 CALM      29.90F
$$

COZ041-046-047-076>085-087-088-241200-
...PIKES PEAK/PALMER DIVIDE AND SOUTHERN FOOTHILLS...

CITY           SKY/WX    TMP DP  RH WIND       PRES   REMARKS
COLO. SPRINGS  FAIR      40  32  73 N6        29.97F
A. F. ACADEMY  FAIR      32  29  90 N8        29.97F WCI  25
SCHRIEVER AFB  FAIR      42  32  66 SW3       29.97F
CHEYENNE MTN   FAIR      42  29  59 NW6       29.92F
ELLICOTT       FAIR     N/A N/A N/A CALM      29.95F
FALCON         FAIR      38  31  76 W6        29.99F
FORT CARSON    FAIR      39  32  73 NW7       29.95F
LIMON          FAIR      28  27  96 NW6       29.93F WCI  22
MONUMENT HILL  FAIR      37  32  81 SW10      29.98F
CANON CITY     NOT AVBL
WALSENBURG     FAIR      45  32  61 W6        29.96F
TRINIDAD       FAIR      42  33  70 W15       29.97F
$$

COZ042>045-048>051-090-091-241200-
...NORTHEAST COLORADO...

CITY           SKY/WX    TMP DP  RH WIND       PRES   REMARKS
GREELEY ARPT   FAIR      38  37  97 E3        29.89F
AKRON          FAIR      40  32  73 S9        29.90F
BURLINGTON     FAIR      34  32  92 W8        29.91F WCI  27
WRAY           FAIR      32  32 100 CALM      29.91F
YUMA           FAIR      32  32 100 W3        29.90F
STERLING       FAIR      34  34 100 SW5       29.89F WCI  30
HOLYOKE        NOT AVBL
FORT MORGAN    FAIR      37  33  87 W3        29.89F
$$

COZ086-089-092>099-241200-
...SOUTHEAST COLORADO...

CITY           SKY/WX    TMP DP  RH WIND       PRES   REMARKS
PUEBLO         FAIR      41  37  86 CALM      29.93F
LA JUNTA       FAIR      45  39  79 W3        29.93F
LAMAR          FAIR      35  33  92 SW7       29.91F WCI  29
SPRINGFIELD      N/A     40  35  83 W7        29.93F
$$




USA.gov is the U.S. government's official web portal to all federal, state and local government web resources and services.